{"data":{"norad_id":66691,"intl_designator":"2025-276AB","name":"TRANSPORTER-15 OBJECT AB","alt_names":[],"object_type":"PAYLOAD","status":"ACTIVE","operator":null,"country":"TBD","launch_date":"2025-11-28","launch_site_code":"AFWTR","launch_vehicle":null,"mission":null,"orbit_class":"UNKNOWN","rcs_meters":null,"size_class":null,"mass_kg":null,"dimensions":null,"purposes":[],"wikipedia_slug":null,"has_3d_model":false,"image_url":null,"decayed_at":null,"tle_current":{"epoch":"2026-05-25T04:21:04.046976Z","epoch_age_seconds":60213,"freshness":"FRESH","line1":"1 66691U 25276AB  26145.18129684  .00008442  00000+0  38924-3 0  9993","line2":"2 66691  97.4205 219.2265 0006254  86.0272 274.1679 15.20489515 26932","mean_motion":15.20489515,"eccentricity":0.0006254,"inclination_deg":97.4205,"raan_deg":219.2265,"arg_perigee_deg":86.0272,"mean_anomaly_deg":274.1679,"bstar":0.00038924,"rev_number":2693,"period_min":94.706341990132,"perigee_km":500.05870779348,"apogee_km":508.66733882263,"semimajor_km":6882.5000233081,"source":"CELESTRAK","updated_at":"2026-05-25T13:38:06.413490Z"}}}